Wind_Speed
14 15 15 16 16 16 16 16 16 16 16 17 16 16 17 18 18 18 18 17 18 19 19 20 20 20 20 20 20 20 19 18 18 18 18 19 21 21 22 21 21 21 21
17 18 17 17 18 18 18 17 18 18 19 20 19 19 19 20 20 21 21 21 21 21 22 22 22 22 22 22 21 21 21 20 19 19 20 20 21 22 22 23 23 23 23
19 20 20 20 20 20 20 20 21 21 22 22 22 22 22 22 23 23 23 23 23 23 24 24 23 23 23 23 22 22 22 22 21 22 22 21 22 22 23 24 24 24 25
22 23 23 23 23 23 23 24 24 23 23 24 24 25 25 25 25 25 26 25 26 26 26 26 25 25 24 24 24 24 24 24 23 23 24 24 24 24 24 24 25 25 26
25 25 25 25 26 26 26 27 26 26 26 27 27 27 27 27 27 27 27 27 28 29 28 28 28 27 26 25 25 25 25 25 25 25 25 25 25 25 25 25 26 26 26
27 27 27 28 28 29 29 29 29 29 29 29 29 29 30 30 30 29 29 29 29 29 29 29 28 28 27 27 26 26 26 26 26 27 27 27 27 27 27 27 27 27 27
29 29 29 30 31 31 31 31 32 31 31 31 32 32 32 32 31 31 31 30 30 29 29 29 29 28 28 29 29 28 28 29 29 29 29 29 29 29 29 29 29 29 29
32 32 33 33 32 32 33 33 32 33 32 33 33 33 32 32 32 32 32 31 30 29 29 29 29 28 29 29 29 29 29 29 29 30 31 31 30 31 31 31 31 30 31
34 34 34 34 33 34 34 34 34 34 33 33 33 33 34 34 34 33 33 32 32 31 30 30 30 30 31 31 30 30 30 30 30 31 31 32 32 32 32 32 32 32 32
36 35 35 35 35 35 35 35 36 35 35 35 35 34 34 35 34 34 34 33 33 32 32 32 31 32 32 32 31 31 31 31 32 32 32 32 32 33 32 32 32 32 32
37 36 37 37 36 36 36 37 37 37 37 36 36 36 36 36 37 36 36 35 34 34 34 34 33 33 33 32 32 32 32 32 33 33 33 32 32 32 32 32 32 33 33
39 38 38 39 39 38 39 39 39 38 38 37 38 38 38 38 38 38 37 37 36 36 35 35 34 34 34 33 33 33 33 33 34 34 34 33 33 33 33 33 33 33 33
40 40 40 39 40 40 40 40 40 39 38 38 39 39 39 39 38 38 37 37 37 36 36 36 36 35 35 35 34 34 34 35 34 34 34 34 33 33 33 33 33 33 33
41 41 41 41 41 42 42 42 41 41 41 40 39 39 39 39 38 38 38 37 37 36 36 37 37 36 36 35 35 35 35 35 34 33 33 34 33 33 33 33 33 33 33
42 42 42 42 42 43 43 44 43 43 43 42 41 40 39 38 38 38 38 38 37 37 37 37 37 37 36 36 36 36 35 34 34 33 33 33 32 32 33 33 33 33 33
42 42 42 42 43 43 43 43 43 43 42 42 42 41 39 39 39 39 39 38 37 37 37 36 36 36 36 36 36 35 34 34 34 33 33 33 33 33 33 34 33 33 32
43 43 43 43 43 43 43 43 43 43 43 42 41 40 40 40 39 38 37 37 37 36 36 36 36 35 34 34 33 34 33 33 33 32 33 33 34 34 34 33 33 33 32
43 43 43 43 43 43 43 43 43 42 42 42 41 40 39 38 38 37 37 36 35 35 34 34 33 33 33 33 32 31 32 32 31 30 31 32 32 32 32 31 31 31 31
42 42 42 43 42 42 42 42 41 41 42 42 41 41 38 37 37 37 36 35 34 34 33 32 32 32 33 33 32 31 31 30 29 29 30 31 31 31 30 30 31 31 31
41 42 42 42 42 42 42 41 41 40 40 40 40 38 37 36 36 35 35 34 34 34 32 32 32 32 32 32 30 30 31 31 30 30 30 30 30 30 31 30 30 30 30
40 40 40 40 40 40 40 39 38 37 37 37 37 37 36 35 35 34 34 34 34 34 33 32 32 31 31 31 31 31 31 31 30 30 29 29 29 29 29 30 30 30 30
38 38 38 37 37 36 36 36 36 35 35 34 34 34 34 33 33 33 33 33 32 32 32 32 32 31 32 31 30 30 30 30 29 29 29 28 28 28 28 28 28 28 29
35 35 35 35 35 35 34 33 33 33 32 32 31 31 31 31 31 31 31 31 31 31 31 32 32 31 31 31 31 31 30 29 29 30 29 28 28 28 28 28 28 28 28
33 32 32 33 33 32 32 31 30 30 30 30 30 29 30 30 30 30 29 30 30 30 30 30 30 31 31 31 31 31 31 30 30 30 29 29 29 28 28 28 27 28 28
30 30 30 29 28 28 28 27 27 27 27 28 28 28 27 28 28 28 28 28 29 28 29 29 30 29 29 29 30 30 30 29 29 29 29 29 29 28 28 28 28 29 29
29 29 28 27 27 26 25 25 25 25 25 26 26 26 27 27 27 27 27 27 27 27 27 27 27 27 28 30 30 29 29 29 29 29 29 29 29 29 30 30 30 30 29
Wind_Direction
296 294 294 290 288 290 287 282 278 279 279 279 280 281 281 282 282 282 284 282 282 282 284 287 287 287 287 287 286 285 283 282 282 279 280 280 277 277 279 277 278 277 278
293 294 293 292 290 286 284 283 281 279 278 277 277 278 278 278 279 280 281 281 280 281 284 285 285 286 285 285 285 283 282 282 281 281 281 281 281 279 280 278 278 276 277
291 292 290 289 288 285 282 283 283 281 278 276 276 276 276 277 278 279 280 280 279 280 282 284 286 286 284 283 283 282 280 280 280 280 281 281 283 282 281 280 279 279 277
290 290 290 289 287 285 282 281 282 280 278 276 275 275 277 277 278 278 278 279 279 279 279 280 281 283 282 282 282 280 278 278 280 280 280 281 282 283 282 281 281 281 279
287 287 287 287 285 284 283 282 280 280 277 276 274 274 274 275 274 275 277 279 279 278 278 279 279 280 280 279 278 278 277 277 278 279 280 281 282 282 282 282 282 282 279
286 285 285 284 283 283 282 281 279 279 277 276 274 273 273 273 273 274 276 278 279 278 277 277 277 276 276 277 278 277 277 277 277 278 279 279 280 281 282 282 282 281 279
287 285 285 284 282 282 282 282 280 277 276 275 274 274 274 274 273 273 275 277 279 279 277 275 275 276 276 277 278 278 279 278 277 278 278 279 279 279 280 281 281 280 279
286 286 285 285 284 282 281 280 278 275 274 274 274 274 274 273 273 274 274 276 277 277 277 277 275 274 276 277 277 277 278 278 278 279 278 278 278 279 280 280 280 279 280
285 285 285 285 284 283 281 280 278 277 275 275 274 273 274 274 275 275 275 276 276 276 276 276 274 274 274 274 275 276 277 278 278 279 279 278 277 277 278 279 279 278 277
285 285 285 284 284 282 281 279 277 276 276 275 275 275 276 276 275 276 277 277 276 275 275 276 276 276 275 274 275 276 277 278 280 279 279 278 277 277 278 279 278 278 277
285 284 283 283 282 282 281 280 280 278 278 277 277 276 276 275 274 275 275 275 274 274 275 275 275 275 274 275 276 276 277 278 279 279 278 276 276 276 277 278 278 278 277
285 284 283 282 281 280 279 280 279 277 276 276 277 278 278 276 275 275 275 273 273 273 273 273 274 274 273 272 273 275 276 278 279 279 277 276 275 276 277 278 277 278 278
285 284 283 281 280 279 279 279 277 277 277 277 277 279 279 277 276 275 275 272 271 272 272 272 272 272 271 271 272 274 276 277 278 278 277 275 274 275 276 276 276 277 278
285 284 283 282 281 280 280 280 279 278 278 278 278 278 277 277 275 274 274 272 271 271 271 272 271 271 271 270 270 271 274 275 276 277 278 276 275 275 276 276 276 277 277
286 285 285 283 282 282 281 280 279 278 279 278 277 277 277 276 274 273 274 273 271 271 271 271 271 271 270 270 270 271 273 274 275 276 276 276 276 277 277 277 276 277 276
287 286 285 283 283 282 282 280 279 279 279 278 277 277 276 276 274 273 272 272 271 270 269 270 271 271 270 270 270 271 272 271 272 273 274 275 276 276 276 276 276 275 275
287 286 285 284 283 282 282 280 279 278 278 276 275 276 274 274 273 272 271 271 270 269 269 269 270 269 269 270 270 269 269 270 270 272 274 273 273 275 274 275 275 274 274
287 287 285 284 283 282 282 281 279 278 276 275 274 275 274 272 271 271 270 269 269 268 268 268 269 269 269 269 268 267 267 268 269 272 274 275 275 276 275 275 275 274 274
288 288 287 286 285 284 284 283 281 279 276 275 274 274 273 270 268 268 269 267 266 265 266 268 268 268 268 267 266 265 266 267 269 271 273 274 274 273 274 274 274 274 274
289 288 288 287 287 285 285 284 282 281 279 275 274 273 271 269 267 266 266 267 265 265 265 266 267 268 266 266 266 265 265 268 269 271 272 273 273 272 271 272 274 274 274
289 288 288 287 287 286 284 282 281 281 279 277 274 272 271 268 266 265 265 266 266 264 265 266 268 267 265 265 266 266 266 269 270 272 273 273 273 272 272 271 271 271 271
288 288 287 287 286 286 285 283 281 280 280 277 275 273 271 269 267 265 265 265 264 263 265 266 267 266 264 265 266 266 267 269 271 272 272 272 272 271 271 272 273 273 271
290 288 287 287 286 286 285 284 282 280 279 278 276 273 271 270 269 266 264 263 263 264 265 266 265 265 264 262 265 266 265 267 269 271 272 271 271 270 271 273 273 273 272
291 290 289 288 287 287 286 283 281 280 278 277 275 273 271 271 270 269 266 265 265 265 266 266 266 266 265 264 264 265 265 265 267 269 270 271 271 272 272 271 271 272 273
292 293 292 290 289 288 287 284 281 280 279 278 276 276 275 273 271 269 268 268 268 268 268 267 268 266 264 264 265 265 265 266 267 268 268 269 270 270 271 272 272 273 274
293 294 294 292 290 289 289 287 284 282 280 278 277 275 275 274 272 271 270 269 268 268 270 269 267 266 265 264 266 268 268 269 270 270 268 269 269 270 271 272 273 275 274
Height
5899 5898 5897 5896 5895 5894 5893 5892 5891 5890 5890 5889 5888 5887 5886 5885 5884 5882 5881 5881 5880 5879 5878 5877 5875 5874 5872 5871 5869 5868 5867 5866 5865 5864 5863 5861 5860 5859 5858 5857 5856 5855 5855
5895 5893 5892 5891 5890 5889 5888 5887 5886 5885 5884 5883 5882 5881 5880 5879 5878 5877 5876 5875 5874 5873 5872 5871 5869 5867 5866 5865 5864 5862 5861 5860 5859 5858 5857 5856 5854 5853 5852 5851 5850 5849 5848
5889 5888 5887 5886 5885 5884 5883 5881 5880 5879 5878 5877 5876 5875 5874 5873 5872 5871 5870 5869 5867 5866 5865 5864 5862 5861 5860 5858 5857 5856 5855 5854 5853 5852 5851 5849 5848 5847 5846 5845 5844 5842 5841
5884 5882 5881 5880 5879 5877 5876 5875 5873 5872 5870 5869 5868 5868 5867 5866 5865 5864 5863 5862 5861 5859 5858 5857 5855 5854 5853 5851 5850 5848 5847 5846 5846 5845 5844 5843 5841 5840 5839 5838 5837 5835 5834
5877 5876 5875 5873 5872 5870 5869 5867 5866 5864 5863 5862 5860 5860 5860 5859 5857 5856 5855 5854 5853 5851 5850 5849 5848 5847 5845 5844 5843 5841 5840 5839 5838 5837 5836 5835 5834 5833 5832 5830 5829 5828 5826
5870 5868 5867 5865 5864 5862 5860 5859 5857 5856 5855 5853 5852 5851 5851 5850 5849 5848 5846 5845 5844 5842 5841 5840 5839 5838 5837 5836 5835 5834 5833 5832 5831 5830 5829 5828 5827 5825 5824 5823 5821 5820 5819
5862 5860 5858 5856 5854 5853 5851 5849 5848 5847 5846 5844 5843 5842 5842 5840 5839 5839 5837 5836 5835 5833 5832 5831 5830 5829 5829 5828 5827 5825 5824 5823 5823 5822 5821 5819 5818 5817 5816 5814 5813 5812 5810
5852 5851 5849 5847 5845 5843 5841 5840 5838 5837 5836 5835 5834 5833 5832 5830 5830 5829 5828 5827 5826 5825 5823 5822 5821 5821 5820 5819 5818 5817 5816 5815 5814 5813 5812 5811 5809 5808 5807 5805 5804 5803 5802
5842 5841 5839 5837 5835 5833 5832 5830 5829 5828 5827 5825 5824 5823 5822 5821 5820 5819 5819 5818 5816 5815 5814 5813 5812 5812 5811 5810 5809 5808 5807 5806 5805 5804 5803 5801 5800 5798 5797 5796 5794 5793 5792
5832 5830 5828 5827 5825 5823 5822 5820 5819 5817 5816 5815 5814 5813 5812 5811 5810 5809 5808 5807 5807 5806 5804 5803 5803 5802 5801 5800 5799 5798 5798 5797 5796 5794 5793 5791 5790 5789 5787 5786 5784 5783 5782
5821 5819 5817 5816 5814 5813 5811 5810 5808 5807 5805 5804 5803 5802 5801 5800 5799 5798 5797 5796 5796 5795 5794 5793 5792 5791 5791 5790 5789 5788 5787 5787 5785 5784 5782 5781 5780 5779 5778 5776 5774 5773 5772
5809 5808 5806 5804 5803 5801 5800 5798 5796 5795 5794 5792 5791 5791 5789 5788 5787 5787 5786 5785 5784 5783 5783 5782 5781 5780 5780 5779 5778 5778 5777 5776 5775 5773 5772 5771 5770 5769 5768 5766 5765 5763 5762
5797 5796 5794 5792 5791 5789 5788 5787 5785 5783 5782 5781 5780 5779 5777 5776 5775 5775 5774 5773 5772 5772 5771 5771 5770 5769 5768 5768 5767 5767 5766 5765 5764 5763 5761 5761 5760 5759 5758 5756 5755 5753 5752
5785 5783 5782 5780 5778 5776 5775 5774 5772 5771 5770 5769 5768 5766 5765 5764 5763 5762 5761 5761 5760 5760 5760 5759 5758 5758 5757 5757 5756 5755 5754 5754 5752 5752 5751 5750 5749 5748 5747 5746 5744 5743 5742
5773 5771 5769 5767 5765 5764 5762 5760 5759 5758 5756 5756 5755 5753 5752 5752 5751 5750 5749 5749 5748 5748 5747 5747 5746 5746 5745 5745 5745 5744 5743 5743 5742 5741 5740 5739 5738 5737 5736 5735 5734 5732 5731
5761 5759 5757 5754 5752 5751 5749 5747 5745 5744 5743 5742 5741 5740 5739 5739 5738 5737 5737 5737 5736 5735 5735 5735 5735 5734 5734 5734 5733 5733 5732 5731 5731 5730 5729 5729 5728 5726 5725 5724 5723 5722 5721
5749 5747 5744 5742 5740 5738 5736 5734 5733 5732 5730 5729 5728 5727 5726 5726 5724 5724 5724 5724 5723 5723 5723 5723 5723 5723 5723 5722 5722 5722 5722 5721 5720 5719 5719 5718 5717 5716 5714 5713 5712 5712 5711
5736 5734 5731 5729 5727 5725 5723 5721 5719 5718 5717 5716 5715 5713 5712 5712 5712 5712 5712 5711 5711 5711 5711 5711 5711 5711 5711 5711 5711 5711 5711 5710 5709 5709 5708 5707 5706 5705 5704 5703 5702 5702 5701
5724 5721 5718 5716 5714 5711 5709 5707 5706 5704 5703 5702 5701 5700 5699 5699 5699 5699 5699 5699 5699 5699 5700 5700 5700 5700 5700 5700 5700 5700 5700 5700 5699 5698 5697 5697 5696 5695 5694 5693 5692 5691 5690
5711 5708 5705 5703 5700 5698 5696 5694 5693 5691 5690 5689 5689 5688 5687 5686 5686 5687 5687 5687 5687 5688 5688 5689 5689 5689 5689 5689 5688 5689 5689 5689 5689 5688 5687 5686 5685 5684 5684 5683 5682 5681 5680
5699 5696 5693 5690 5688 5685 5683 5682 5680 5678 5677 5676 5675 5675 5675 5675 5675 5675 5675 5676 5676 5677 5678 5678 5678 5678 5678 5678 5678 5678 5678 5678 5678 5677 5676 5675 5675 5674 5673 5672 5672 5671 5670
5687 5684 5681 5679 5676 5674 5671 5669 5668 5666 5665 5664 5663 5663 5662 5662 5662 5663 5664 5664 5665 5666 5666 5666 5667 5667 5667 5667 5667 5667 5667 5668 5667 5667 5666 5666 5665 5664 5663 5662 5661 5661 5660
5675 5672 5670 5667 5665 5662 5660 5658 5656 5655 5654 5653 5652 5652 5651 5651 5651 5652 5653 5653 5654 5654 5655 5655 5656 5656 5656 5656 5656 5657 5657 5657 5657 5656 5656 5655 5655 5654 5653 5652 5652 5651 5651
5664 5661 5659 5656 5654 5651 5649 5647 5645 5644 5643 5642 5641 5641 5641 5641 5641 5641 5642 5642 5643 5643 5644 5644 5644 5645 5645 5645 5646 5646 5646 5646 5646 5645 5645 5645 5644 5644 5644 5643 5642 5642 5641
5654 5652 5649 5646 5644 5641 5639 5637 5635 5634 5633 5632 5631 5630 5630 5630 5630 5631 5631 5632 5632 5633 5633 5634 5634 5634 5635 5635 5635 5635 5635 5635 5634 5635 5634 5634 5634 5634 5633 5633 5632 5632 5631
5646 5643 5640 5637 5635 5632 5630 5628 5626 5625 5623 5622 5621 5621 5621 5620 5620 5621 5621 5622 5622 5623 5623 5623 5623 5624 5624 5625 5625 5625 5625 5624 5624 5624 5624 5623 5624 5623 5623 5622 5622 5621 5621